Regional Weather Roundup
Issued by NWS Sterling, VA

Home | Current Version | Previous Version | Graphics & Text | Print | Product List | Glossary On
Versions: 1 2 3 4 5 6 7 8 9 10 11 12 13 14 15 16 17 18 19 20 21 22 23 24 25 26 27 28 29 30 31 32 33 34 35 36 37 38 39 40 41 42 43 44 45 46 47 48 49 50
000
ASUS41 KLWX 282310
RWRLWX

REGIONAL WEATHER ROUNDUP
NATIONAL WEATHER SERVICE BALTIMORE MD/WASHINGTON DC
700 PM EDT TUE JUL 28 2015

Note: "FAIR" indicates few or no clouds below 12,000 feet
with no significant weather and/or obstructions to visibility.
 TC=TEMPERATURE CELSIUS

 * =Non NWS site. Station does not report precipitation (e.g. rain,
    snow, etc.), thunder, or fog.

DCZ001-MDZ009-015-VAZ040>042-051-053>054-290000-
WASHINGTON METRO

CITY           SKY/WX    TMP DP  RH WIND       PRES   REMARKS
WASHINGTON NAT PTSUNNY   83  74  74 S16       29.97R
DULLES         PTSUNNY   84  72  67 SE15G21   29.96R
ANDREWS AFB    MOSUNNY   82  73  75 S15       29.97R
FT BELVOIR     TSTM      77  73  88 VRB1      29.97F FOG
QUANTICO       MOSUNNY   81  73  76 S9        29.98R THUNDER
COLLEGE PARK*  SUNNY     88  70  55 SE6       29.95R HX  92
LEESBURG*      SUNNY     90  72  55 NE6       29.96R HX  96
GAITHERSBURG*  SUNNY     84  72  65 SE8       30.00R

$$

MDZ006>007-011-014-290000-
BALTIMORE METRO

CITY           SKY/WX    TMP DP  RH WIND       PRES   REMARKS
BWI AIRPORT    MOSUNNY   88  66  48 SE6       29.95R HX  90
MD SCIENCE CTR   N/A     88  65  46 MISG      29.96R HX  90
ANNAPOLIS      SUNNY     84  70  62 S12       29.96R
FORT MEADE*    SUNNY     82  70  65 SE6       29.98R

$$

MDZ012-015-019>023-290000-
MARYLAND EASTERN SHORE

CITY           SKY/WX    TMP DP  RH WIND       PRES   REMARKS
OCEAN CITY     CLOUDY    78  73  84 SW3       29.97F
SALISBURY      PTSUNNY   78  73  84 E6        29.98S
BAY BRIDGE AP*   N/A     86  72  62 SW7       29.96R HX  92
CAMBRIDGE*     SUNNY     84  70  61 SW5       29.97R
EASTON*        MOSUNNY   88  75  66 SW7       30.00R HX  97

$$

MDZ017>025-290000-
SOUTHERN MARYLAND

CITY           SKY/WX    TMP DP  RH WIND       PRES   REMARKS
PATUXENT RIVER MOSUNNY   81  72  74 SW6       29.97R
ST INIGOES     MOSUNNY   82  72  71 SW9       29.97R
LEONARDTOWN*   MOSUNNY   79  70  73 SW3       30.00R

$$

MDZ003>005-290000-
NORTH CENTRAL MARYLAND

CITY           SKY/WX    TMP DP  RH WIND       PRES   REMARKS
FREDERICK*     SUNNY     88  72  58 VRB5      29.97S HX  94
HAGERSTOWN APT MOSUNNY   87  67  51 E6        29.97S HX  90
WESTMINSTER*   SUNNY     88  72  58 E5        29.98S HX  94

$$

MDZ501>502-290000-
WESTERN MARYLAND

CITY           SKY/WX    TMP DP  RH WIND       PRES   REMARKS
OAKLAND*       SUNNY     77  77 100 SE6       30.09S
CUMBERLAND*    MOSUNNY   88  68  51 CALM      30.01R HX  91

$$

VAZ025>031-290000-
SHENANDOAH VALLEY

CITY           SKY/WX    TMP DP  RH WIND       PRES   REMARKS
WINCHESTER*    MOSUNNY   86  72  62 SE5       29.97S HX  92
FRONT ROYAL*   FAIR      82  72  69 SE3       29.96R
LURAY*         FAIR      82  77  83 CALM      29.98R HX  91
NEW MARKET*    MOCLDY    81  74  77 CALM      29.96S
STAUNTON*      PTSUNNY   85  74  70 NE7       30.01R HX  92
WAYNESBORO*    CLOUDY    76  74  92 CALM      30.01R

$$

WVZ021-048>050-054>055-290000-
EASTERN WEST VIRGINIA PANHANDLE

CITY           SKY/WX    TMP DP  RH WIND       PRES   REMARKS
MARTINSBURG    SUNNY     87  69  54 E3        29.96S HX  91
PETERSBURG*    PTSUNNY  N/A N/A N/A CALM      30.01S

$$

VAZ036>039-050-290000-
CENTRAL FOOTHILLS

CITY           SKY/WX    TMP DP  RH WIND       PRES   REMARKS
CHARLOTTESVILL CLOUDY    74  70  87 S9        29.99R
CULPEPER*      CLOUDY    72  71  95 S7        30.00R
ORANGE*        CLOUDY    75  73  94 CALM      30.00F
GORDONSVILLE*  CLOUDY    73  73 100 SW6       29.97F
WARRENTON*     TSTM      75  74  95 S8        29.98R

$$

VAZ055>057-290000-
NORTH AND CENTRAL PIEDMONT

CITY           SKY/WX    TMP DP  RH WIND       PRES   REMARKS
FREDERICKSBRG* LGT RAIN  77  77 100 CALM      29.96S
STAFFORD*      PTSUNNY   74  71  89 CALM      30.01S

$$

NCZ024-NYZ072-PAZ021-071-VAZ022-071-290000-
OTHER REGIONAL OBSERVATIONS

CITY           SKY/WX    TMP DP  RH WIND       PRES   REMARKS
NEW YORK CITY  SUNNY     86  64  47 VRB5      29.97S
PHILADELPHIA   MOSUNNY   91  68  46 SW9       29.93F HX  95
PITTSBURGH     MOSUNNY   88  62  41 NE7       29.98F
ROANOKE        PTSUNNY   80  69  69 NE7       30.00S THUNDER
RICHMOND       CLOUDY    82  74  76 S3        29.97S
RALEIGH        LGT RAIN  85  71  63 VRB3      29.96F HX  90

$$

ANZ530>537-290000-
MARINE OBSERVATIONS

STATION/POSITION TIME  TEMP    WIND        PRES
                       AIR SEA DIR/SP/G
                 (UTC) (F)     (DEG/KT/KT) (MB)
THOMAS PT LIGHT  NOT AVBL
BALT KEY BRIDGE  2200   85     120/  5/  6 1013.9F
COVE POINT       2200   83     220/  7/ 10 1015.0F
LEWISETTA        2200   82 86  260/  7/  9 1014.4F
SOLOMONS ISLAND  2200      84                N/A

$$



USA.gov is the U.S. government's official web portal to all federal, state and local government web resources and services.